Tracking 31013 objects as of 10-Jul-2025
HD Live streaming from Space Station
objects crossing your sky now

ARIANE 1 DEB

Track ARIANE 1 DEB now!


NORAD ID: 25822
Int'l Code: 1984-023D
Perigee: 1,052.3 km
Apogee: 31,590.3 km
Inclination: 7.8 °
Period: 567.0 minutes
Semi major axis: 22692 km
RCS: 0.3362 m2 (medium)
Launch date: March 5, 1984
Source: European Space Agency (ESA)
Launch site: FRENCH GUIANA (FRGUI)

Note: This is SATELLITE DEBRIS
Your satellite tracking list
Your tracking list is empty




NASA's NSSDC Master Catalog

Two Line Element Set (TLE):
1 25822U 84023D   25191.22085634  .00000008  00000-0  00000+0 0  9991
2 25822   7.7901 196.4718 6728714 215.4522 156.6664  2.53971806245902
Source of the keplerian elements: AFSPC